Location: Poughquag
(41.6090°N, 73.6820°W)
Time: 03:29:20
(UTC-04:00)

Vanguard 2 Rocket - Pass Details

Date: 05 June 2020
Orbit: 556 x 3324 km, 32.9° (Epoch: 06 July)

Event Time Altitude Azimuth Distance (km) Brightness Sun altitude
Rises 21:47:50 0° 264° (W) 5,688 11.5 -12.7°
Reaches altitude 10° 21:54:14 10° 242° (WSW) 5,252 10.9 -13.5°
Maximum altitude 22:00:58 14° 217° (SW) 5,381 10.7 -14.3°
Drops below altitude 10° 22:08:39 10° 193° (SSW) 6,086 10.7 -15.2°
Enters shadow 22:14:54 - 178° (S) 6,896 10.9 -16.0°
Sets 22:17:44 0° 172° (S) 7,295 - -16.3°
